Regional Weather Roundup
Issued by NWS

Home | Current Version | Previous Version | Graphics & Text | Print | Product List | Glossary On
Versions: 1 2 3 4 5 6 7 8 9 10 11 12 13 14 15 16 17 18 19 20 21 22 23 24 25 26 27 28 29 30 31 32 33 34 35 36 37 38 39 40 41 42 43 44 45 46 47 48 49 50
000
ASUS43 KDMX 301908
RWRIA

WEATHER ROUNDUP FOR IOWA
NATIONAL WEATHER SERVICE DES MOINES IA
200 PM CDT SAT JUL 30 2016

NOTE: "FAIR" INDICATES FEW OR NO CLOUDS BELOW 12,000 FEET WITH NO
SIGNIFICANT WEATHER AND/OR OBSTRUCTIONS TO VISIBILITY.

* - THESE STATIONS ARE NOT NWS STATIONS...THUS NOT UNDER NWS
QUALITY CONTROL.  THEY ALSO DO NOT REPORT WEATHER SUCH
AS PRECIPITATION OR FOG.

IAZ001>003-012>014-020>022-031>034-043>046-302000-
   NORTHWEST IOWA

CITY           SKY/WX    TMP DP  RH WIND       PRES   REMARKS
CARROLL *      MOSUNNY   79  64  61 CALM      30.02S HX  81
CHEROKEE *     MOSUNNY   80  61  52 SE8       30.01F HX  81
DENISON *      MOSUNNY   77  64  65 SE5       30.00S
LE MARS *      MOSUNNY   79  61  53 SE10      30.01F HX  80
SHELDON *      PTSUNNY   75  61  60 SE6       30.01F
SIOUX CITY     MOSUNNY   81  60  48 SE9       29.99F HX  82
SPENCER        PTSUNNY   78  59  51 SE7       30.02F
STORM LAKE *     N/A     77  63  61 CALM      30.03F
$$

IAZ055>058-069>071-079>083-090>094-302000-
   SOUTHWEST IOWA

CITY           SKY/WX    TMP DP  RH WIND       PRES   REMARKS
ATLANTIC *     PTSUNNY   77  64  65 CALM      30.01F
CLARINDA *       N/A     79  66  65 MISG      30.03F HX  81
COUNCIL BLFS * CLOUDY    75  66  73 E8        30.01F
CRESTON *      CLOUDY    77  64  65 SE3       30.04F
HARLAN  *      SUNNY     77  64  65 S7        30.05F
LAMONI         CLOUDY    77  65  66 VRB5      30.02F
RED OAK *      PTSUNNY   75  66  73 SE5       30.02F
SHENANDOAH *   CLOUDY    77  68  73 E3        30.01F
$$

IAZ047>049-059>061-072>074-084-302000-
   CENTRAL IOWA

CITY           SKY/WX    TMP DP  RH WIND       PRES   REMARKS
AMES           PTSUNNY   77  68  73 E5        30.01F
ANKENY *         N/A    N/A N/A N/A MISG        N/A
BOONE *        MOSUNNY   79  64  61 CALM      30.01F HX  81
CHARITON *       N/A    N/A N/A N/A MISG        N/A
DES MOINES     PTSUNNY   78  64  61 NE3       30.00F HX  80
GRINNELL*      CLOUDY    75  66  71 NW3       30.02F
KNOXVILLE *    MOSUNNY   77  66  69 VRB7      30.00F
MARSHALLTOWN   CLOUDY    78  66  66 VRB5      30.01F HX  80
NEWTON *       CLOUDY    77  68  73 E5        30.01F
PELLA *        MOSUNNY   77  66  68 N3        30.02F
PERRY *        PTSUNNY   76  67  73 CALM      30.01F
$$

IAZ004>006-015-016-023>025-035-036-302000-
   NORTH CENTRAL IOWA

CITY           SKY/WX    TMP DP  RH WIND       PRES   REMARKS
ALGONA *       DRIZZLE   73  66  78 CALM      30.03F
ESTHERVILLE    SUNNY     77  63  61 VRB5      30.02F
FORT DODGE *   PTSUNNY   79  64  61 E5        30.03F HX  81
MASON CITY     MOSUNNY   79  66  64 SE7       30.03F HX  81
FOREST CITY *    N/A     77  63  61 CALM      30.02F
IOWA FALLS *   PTSUNNY   80  64  58 SE5       30.03F HX  82
$$

IAZ007>011-017>019-026>030-037>042-050>054-066-302000-
   NORTHEAST IOWA

CITY           SKY/WX    TMP DP  RH WIND       PRES   REMARKS
CEDAR RAPIDS   PTSUNNY   78  67  68 VRB3      29.99F HX  80
CHARLES CITY * MOSUNNY   77  66  69 CALM      30.02F
CLINTON *      PTSUNNY   80  67  64 E7        30.00F HX  82
DECORAH *      PTSUNNY   75  64  69 E7        30.02F
DUBUQUE          N/A    N/A N/A N/A MISG      30.02F
MONTICELLO *   CLOUDY    77  68  73 E7        30.00F
OELWEIN *      PTSUNNY   75  64  69 CALM      30.02F
WATERLOO       MOSUNNY   77  63  61 NE3       30.00F
$$

IAZ064-065-067-068-078-302000-
   EAST CENTRAL IOWA

CITY           SKY/WX    TMP DP  RH WIND       PRES   REMARKS
DAVENPORT      CLOUDY    76  67  73 NE8       30.00F
IOWA CITY      PTSUNNY   79  65  62 CALM      30.00F HX  81
MT. PLEASANT * CLOUDY    80  67  63 CALM      29.99F HX  83
MUSCATINE *    CLOUDY    81  66  61 N6        29.99F HX  83
QUAD CITIES    PTSUNNY   81  67  62 CALM      29.98F HX  83
$$

IAZ062-063-075>077-085>089-095>099-302000-
   SOUTHEAST IOWA

CITY           SKY/WX    TMP DP  RH WIND       PRES   REMARKS
BURLINGTON     MOSUNNY   78  67  68 CALM      29.98F HX  80
FAIRFIELD *    PTSUNNY   77  66  69 VRB6      30.00F
KEOKUK *       CLOUDY    79  66  65 W7        29.99S HX  81
OSKALOOSA *    CLOUDY    74  68  79 NW5       30.01F
CENTERVILLE *    N/A     79  66  65 NW3       30.03F HX  81
OTTUMWA        PTSUNNY   78  66  66 VRB5      30.01F HX  80
WASHINGTON *   CLOUDY    77  68  73 N7        30.01F
$$

ABBREVIATIONS USED IN REMARKS
   TC - TEMPERATURES IN CELSIUS
  WCI - WIND CHILL INDEX
   HX - HEAT INDEX
  VSB - VISIBILITY
$$




USA.gov is the U.S. government's official web portal to all federal, state and local government web resources and services.